Airfield :
LOGIN :

Register | Disclaimer

   EN    FR    IT 

 










Legend :    VFR   Marginal VFR   IFR   Intensive IFR   Very Intensive IFR
Visi :
Ceiling :
>= 8 km
>= 3000ft
5 to 8 km
1000 to 3000 ft
1500m to 5 km
500 to 1000 ft
800 to 1500m
200 to 500 ft
< 800m
< 200 ft
Symbols :   Thunderstorms  Fog  Heavy snow  Heavy precipitations  Wind > 20 kt
SIGMETs :     Misc.  Thunderstorms  Icing  Turbulence  Mountain Waves  Volcanic Ashes






- Airport Elevation : 408 ft
- IATA code : SOB


LHSM - Sarmellek Balaton

CURRENT METAR :
  • 301345Z AUTO 31011KT 280V340 9000 NSC 16/05 Q1017

EXPIRED METARs :
  • 301315Z AUTO 32012KT 290V350 CAVOK 16/04 Q1017
  • 301245Z AUTO 32011KT 280V350 9000 NSC 16/05 Q1017
  • 301215Z AUTO 33012KT 300V360 CAVOK 15/04 Q1018
  • 301145Z AUTO 32013KT 290V350 CAVOK 15/04 Q1018
  • 301115Z AUTO 31011KT 280V350 9000 NSC 14/04 Q1018

Expired Forecast.



MET'MAP, your aeronautical weather chart ! - Copyright ORBIFLY December 2007 - Disclaimer

ORBIFLY MET'MAP TEAM :

Programming & Development : Alexandra Zaïnal
Concept & original design : Baudouin d'Aumeries
Assistance for programming : Marc-Olivier Méhu
Technical & hardware support : Manuel Goepfert

Contact : metmap@orbifly.com




SOURCES & CREDITS :

   NOAA